Location: *
(49.0044°N, 9.5056°E)
Time: 13:22:28
(UTC+00:00)

Meteor 2-17 Rocket - Pass Details

Date: 22 September 2019
Orbit: 934 x 957 km, 82.5° (Epoch: 18 October)

Event Time Altitude Azimuth Distance (km) Brightness Sun altitude
Rises 18:23:31 0° 352° (N) 3,619 7.8 -11.0°
Reaches altitude 10° 18:26:03 10° 355° (N) 2,667 7.0 -11.4°
Maximum altitude 18:32:06 62° 77° (ENE) 1,047 4.4 -12.4°
Drops below altitude 10° 18:38:04 10° 158° (SSE) 2,639 6.4 -13.3°
Sets 18:40:33 0° 161° (SSE) 3,578 7.1 -13.7°
